This is the latest recevied weather packets stored in our database for station/object KK7DS. If no packets are shown the sender has not sent any weather packets the latest 1 day(s).
| Time | Temp. | Humidity | Pressure | Rain* | Wind** | Luminosity | Snow |
|---|---|---|---|---|---|---|---|
| 1778080685 | 12.22° C | 90% | 1021 hPa | 0 mm | - | - | - |
| 1778073447 | 12.22° C | 90% | 1019.7 hPa | 0 mm | - | - | - |
| 1778072335 | 12.22° C | 90% | 1019.5 hPa | 0 mm | - | - | - |
| 1778066250 | 12.22° C | 89% | 1018.9 hPa | 0 mm | - | - | - |
| 1778065745 | 12.78° C | 89% | 1018.8 hPa | 0 mm | - | - | - |
| 1778062600 | 12.78° C | 88% | 1018.2 hPa | 0 mm | - | - | - |
| 1778061400 | 13.33° C | 88% | 1018.1 hPa | 0 mm | - | - | - |
| 1778058828 | 13.33° C | 88% | 1018 hPa | 0 mm | - | - | - |
| 1778058234 | 13.33° C | 88% | 1017.9 hPa | 0 mm | - | - | - |
| 1778057678 | 13.33° C | 88% | 1018 hPa | 0 mm | - | - | - |
| 1778056015 | 13.89° C | 87% | 1018 hPa | 0 mm | - | - | - |
| 1778053822 | 14.44° C | 85% | 1017.8 hPa | 0 mm | - | - | - |
| 1778053340 | 14.44° C | 85% | 1017.6 hPa | 0 mm | - | - | - |
| 1778050145 | 14.44° C | 84% | 1017.3 hPa | 0 mm | - | - | - |
| 1778047475 | 14.44° C | 83% | 1017.3 hPa | 0 mm | - | - | - |
| 1778046952 | 14.44° C | 83% | 1017.2 hPa | 0 mm | - | - | - |
| 1778046470 | 14.44° C | 83% | 1017.3 hPa | 0 mm | - | - | - |
| 1778045290 | 13.89° C | 85% | 1017.1 hPa | 0 mm | - | - | - |
| 1778044278 | 13.89° C | 85% | 1017.1 hPa | 0 mm | - | - | - |
| 1778043122 | 13.89° C | 86% | 1017 hPa | 0 mm | - | - | - |
| 1778042590 | 13.89° C | 85% | 1016.9 hPa | 0 mm | - | - | - |
| 1778042065 | 13.89° C | 84% | 1016.8 hPa | 0 mm | - | - | - |
| 1778040955 | 14.44° C | 82% | 1016.6 hPa | 0 mm | - | - | - |
| 1778040475 | 15° C | 82% | 1016.5 hPa | 0 mm | - | - | - |
| 1778039939 | 15° C | 82% | 1016.4 hPa | 0 mm | - | - | - |
* Rain latest hour (hover to see other rain measurements)
** Current wind speed in m/s (hover to see current wind gust speed)